This is the latest recevied weather packets stored in our database for station/object DG6YGE-6. If no packets are shown the sender has not sent any weather packets the latest 10 day(s).
| Time | Temp. | Humidity | Pressure | Rain* | Wind** | Luminosity | Snow |
|---|---|---|---|---|---|---|---|
| 1776937152 | 10.56° C | 70% | 1026.9 hPa | 0 mm | - | 657 W/m² | - |
| 1776936551 | 10° C | 71% | 1026.9 hPa | 0 mm | - | 640 W/m² | - |
| 1776935952 | 9.44° C | 73% | 1027 hPa | 0 mm | - | 627 W/m² | - |
| 1776935352 | 8.89° C | 75% | 1027.1 hPa | 0 mm | - | 610 W/m² | - |
| 1776934752 | 8.89° C | 75% | 1027 hPa | 0 mm | - | 597 W/m² | - |
| 1776934152 | 7.78° C | 78% | 1027.2 hPa | 0 mm | - | 579 W/m² | - |
| 1776933551 | 7.22° C | 79% | 1027.2 hPa | 0 mm | - | 561 W/m² | - |
| 1776932951 | 7.22° C | 82% | 1027.4 hPa | 0 mm | - | 546 W/m² | - |
| 1776932353 | 6.11° C | 84% | 1027.5 hPa | 0 mm | - | 530 W/m² | - |
| 1776931751 | 5.56° C | 87% | 1027.4 hPa | 0 mm | - | 541 W/m² | - |
| 1776931152 | 4.44° C | 89% | 1027.4 hPa | 0 mm | - | 359 W/m² | - |
| 1776930552 | 3.89° C | 89% | 1027.4 hPa | 0 mm | - | 242 W/m² | - |
| 1776929951 | 3.33° C | 88% | 1027.3 hPa | 0 mm | - | 276 W/m² | - |
| 1776929351 | 3.33° C | 89% | 1027.2 hPa | 0 mm | - | 227 W/m² | - |
| 1776928751 | 3.33° C | 89% | 1027.1 hPa | 0 mm | - | 211 W/m² | - |
| 1776928151 | 2.78° C | 89% | 1027.1 hPa | 0 mm | - | 177 W/m² | - |
| 1776927551 | 2.78° C | 89% | 1027.1 hPa | 0 mm | - | 143 W/m² | - |
| 1776926951 | 2.78° C | 89% | 1027.1 hPa | 0 mm | - | 142 W/m² | - |
| 1776926351 | 2.22° C | 89% | 1026.9 hPa | 0 mm | - | 129 W/m² | - |
| 1776925751 | 2.22° C | 89% | 1027 hPa | 0 mm | - | 115 W/m² | - |
| 1776925151 | 2.22° C | 89% | 1027.2 hPa | 0 mm | - | 65 W/m² | - |
* Rain latest hour (hover to see other rain measurements)
** Current wind speed in m/s (hover to see current wind gust speed)